User: anonymous   Login
Location: Unspecified
(0.0000°N, 0.0000°E)
Time: 03:22:05
(UTC+02:00)
Language:

Cosmos 1437 - Orbit

View from above orbital plane
View from above orbital plane
View from above satellite
View from above satellite

Ground track
Ground track

The orbit data is extracted from the following two-line orbital elements,

1 13770U 83003A   17149.54105472 +.00007473 +00000-0 +12654-3 0  9994
2 13770 081.1563 171.3930 0005521 336.2416 023.8576 15.51351438883350
Epoch (UTC): 29 May 2017 12:59:07
Eccentricity: 0.0005521
inclination: 81.1563°
perigee height: 409 km
apogee height: 416 km
right ascension of ascending node: 171.3930°
argument of perigee: 336.2416°
revolutions per day: 15.51351438
mean anomaly at epoch: 23.8576°
orbit number at epoch: 88335

The dashed part of the orbit path shows where the satellite is in the earth's shadow,  

DLR